Simultaneous Nadir Overpasses (SNOs) Predictions

Prediction of SNOs between METOP-B and TERRA Satellite Orbit:

Table of predicted SNOs for the next 14.0 days since TLE Epoch: 10/12/2019
Index Date (METOP-B) Time (METOP-B) Lat,Lon (METOP-B) SZA (METOP-B ) Date (TERRA) Time (TERRA) Lat,Lon (TERRA) SZA (TERRA ) Distance(km) Time Diff (sec)
1 10/12/2019 17:47:10 81.32, -39.52 91.91 10/12/2019 17:47:57 81.32, -39.69 91.92 2.80 47
2 10/12/2019 18:37:51 -81.32, 127.88 88.07 10/12/2019 18:37:24 -81.31, 127.83 88.09 1.14 27
3 10/15/2019 13:21:32 81.32, 26.64 92.94 10/15/2019 13:22:12 81.31, 26.63 92.96 0.31 40
4 10/15/2019 14:12:12 -81.32,-165.55 86.99 10/15/2019 14:11:38 -81.33,-165.44 86.99 2.01 34
5 10/18/2019 08:55:53 81.32, 93.19 94.00 10/18/2019 08:56:26 81.33, 93.30 94.04 2.08 33
6 10/18/2019 09:46:33 -81.33, -98.99 85.93 10/18/2019 09:45:53 -81.32, -99.12 85.97 2.17 40
7 10/21/2019 04:30:14 81.32, 159.71 95.04 10/21/2019 04:30:41 81.32, 159.54 95.03 2.90 27
8 10/21/2019 05:20:55 -81.32, -32.85 84.94 10/21/2019 05:20:08 -81.32, -32.85 84.97 0.76 47
9 10/24/2019 00:04:34 81.32,-133.78 96.05 10/24/2019 00:04:54 81.32,-133.87 96.05 1.64 20




NCC Satellite Simultaneous Nadir Overpasses (SNOs) Prediction Service
